Regional Weather Roundup
Issued by NWS

Home | Current Version | Previous Version | Text Only | Print | Product List | Glossary On
Versions: 1 2 3 4 5 6 7 8 9 10 11 12 13 14 15 16 17 18 19 20 21 22 23 24 25 26 27 28 29 30 31 32 33 34 35 36 37 38 39 40 41 42 43 44 45 46 47 48 49 50
000
ASUS44 KLIX 282311
RWRLA
LOUISIANA WEATHER ROUNDUP
NATIONAL WEATHER SERVICE NEW ORLEANS LA
600 PM CDT SAT MAR 28 2015

NOTE: "FAIR" INDICATES FEW OR NO CLOUDS BELOW 12,000 FEET WITH NO
      SIGNIFICANT WEATHER AND/OR OBSTRUCTIONS TO VISIBILITY.
      SKY/WX - SKY CONDITION AND SIGNIFICANT WEATHER.
      TMP - AIR TEMPERATURE.    DP   - DEWPOINT TEMPERATURE.
      RH  - RELATIVE HUMIDITY.  PRES - PRESSURE.
      HX  - HEAT INDEX.         WCI  - WIND CHILL INDEX.

*  THESE STATIONS ARE NOT NWS OR FAA STATIONS AND ARE NOT UNDER
   NWS QUALITY CONTROL.

LAZ040-048-061>063-065-066-069-290000-
SOUTHEAST LOUISIANA

CITY           SKY/WX    TMP DP  RH WIND       PRES   REMARKS
N.O. AUDUBON     N/A     65  50  58 MISG        N/A
N.O. INTL ARPT MOSUNNY   66  46  48 S13       30.17R
N.O. LAKEFRONT SUNNY     66  44  45 SE14      30.18R
SLIDELL        SUNNY     65  43  44 S8        30.17R
BATON ROUGE    SUNNY     72  45  37 S12       30.13S
BOOTHVILLE     SUNNY     62  48  60 E9        30.21R
BELLE CHASSE   SUNNY     63  44  50 SE9       30.18R
BOGALUSA*        N/A     70  38  30 CALM      30.17S
GALLIANO*      CLEAR     66  49  54 SE5       30.20R
NEW ROADS*     FAIR      73  46  38 SW6       30.12S
GONZALES*      FAIR      70  51  49 CALM      30.15R
HAMMOND*       SUNNY     68  43  40 SE6       30.18S
HOUMA*         SUNNY     64  52  63 S13       30.18R
PORT FOURCHON* CLEAR     64  52  63 SE12      30.23R

$$

LAZ041-044-053-054-290000-
SOUTHWEST LOUISIANA

CITY           SKY/WX    TMP DP  RH WIND       PRES   REMARKS
LAKE CHARLES   SUNNY     71  56  58 S12       30.11F
LAFAYETTE      SUNNY     70  51  51 S12       30.14S
PATTERSON      SUNNY     68  52  56 S10       30.16R
SALT POINT       N/A     65  55  70 VRB6      30.15S
NEW IBERIA     SUNNY     69  54  58 S12       30.16R
CHENAULT AIRPK SUNNY     72  55  56 S14         N/A

$$

LAZ027-028-290000-
CENTRAL LOUISIANA

CITY           SKY/WX    TMP DP  RH WIND       PRES   REMARKS
FORT POLK      SUNNY     76  53  44 S12       30.07S
ALEXANDRIA INT SUNNY     74  48  39 S10       30.07F
ALEXANDRIA     SUNNY     74  47  38 S6        30.09F

$$

LAZ001-002-290000-
NORTHWEST LOUISIANA

CITY           SKY/WX    TMP DP  RH WIND       PRES   REMARKS
SHREVEPORT     SUNNY     78  46  32 S7        30.03R
BARKSDALE AFB  SUNNY     76  46  33 S6        30.04R
DTN SHREVEPORT SUNNY     75  46  35 SE6       30.04R

$$

LAZ014-016-290000-
NORTHEAST LOUISIANA

CITY           SKY/WX    TMP DP  RH WIND       PRES   REMARKS
MONROE         SUNNY     65  43  44 E8        30.14S
TALLULAH       SUNNY     61  38  42 E8        30.16S

$$



USA.gov is the U.S. government's official web portal to all federal, state and local government web resources and services.